Location: Pompeys Pillar
(45.9913°N, 107.9528°W)
Time: 04:30:47
(UTC+00:00)

Tiros 1 - Pass Details

Date: 29 May 2022
Orbit: 629 x 663 km, 48.4° (Epoch: 30 June)

Event Time Altitude Azimuth Distance (km) Brightness Sun altitude
Rises 13:42:03 0° 281° (WNW) 2,943 10.0 21.0°
Reaches altitude 10° 13:45:24 10° 257° (WSW) 2,037 9.2 21.5°
Maximum altitude 13:47:48 14° 226° (SW) 1,787 9.1 21.9°
Drops below altitude 10° 13:50:13 10° 195° (SSW) 2,042 9.6 22.4°
Sets 13:53:35 0° 170° (S) 2,956 10.6 22.9°
